Flight Track Log - Related Links

Times and Time Zones

All times are in EDT time to prevent confusion due to time zone crossing. See the AAY805 flight status page for this flight to view local times or setup timezone preferences in your user account.

Time Position Orientation Groundspeed Altitude Reporting Facility
EDT Latitude Longitude Course Direction KTS MPH feet Rate Location/Type
Thu 02:09:47 PM 35.1089 -85.0797 166° South 270 311 5,700  Level Atlanta Center
Thu 02:10:47 PM 35.0297 -85.0558 166° South 229 264 8,500 2,650 Climbing Atlanta Center
Thu 02:11:47 PM 34.9467 -85.0169 159° South 270 311 11,000 2,100 Climbing Atlanta Center
Thu 02:12:47 PM 34.8531 -84.9753 160° South 315 362 12,700 2,000 Climbing Atlanta Center
Thu 02:13:47 PM 34.7531 -84.9311 160° South 363 418 15,000 2,250 Climbing Atlanta Center
Thu 02:14:47 PM 34.6408 -84.8794 159° South 382 440 17,200 2,150 Climbing Atlanta Center
Thu 02:15:47 PM 34.5325 -84.8331 161° South 400 460 19,300 1,950 Climbing Atlanta Center
Thu 02:16:47 PM 34.4222 -84.7817 159° South 411 473 21,100 1,850 Climbing Atlanta Center
Thu 02:17:47 PM 34.3119 -84.7356 161° South 421 484 23,000 1,700 Climbing Atlanta Center
Thu 02:18:47 PM 34.1975 -84.6842 160° South 428 493 24,500 1,300 Climbing Atlanta Center
Thu 02:19:47 PM 34.0872 -84.6358 160° South 445 512 25,600 1,300 Climbing Atlanta Center
Thu 02:20:47 PM 33.9706 -84.5847 160° South 450 518 27,100 1,450 Climbing Atlanta Center
Thu 02:21:47 PM 33.8475 -84.5342 161° South 450 518 28,500 950 Climbing Atlanta Center
Thu 02:22:47 PM 33.7225 -84.4783 160° South 465 535 29,000 550 Climbing Atlanta Center
Thu 02:23:47 PM 33.6017 -84.4428 166° South 465 535 29,600 900 Climbing Atlanta Center
Thu 02:24:47 PM 33.4658 -84.4322 176° South 471 542 30,800 1,200 Climbing Atlanta Center
Thu 02:25:47 PM 33.3344 -84.4292 179° South 476 548 32,000 1,200 Climbing Atlanta Center
Thu 02:26:47 PM 33.2008 -84.4286 180° South 481 554 33,200 1,500 Climbing Atlanta Center
Thu 02:27:47 PM 33.0694 -84.4256 179° South 475 547 35,000 1,550 Climbing Atlanta Center
Thu 02:28:47 PM 32.9419 -84.4225 179° South 470 541 36,300 1,000 Climbing Atlanta Center
Thu 02:29:47 PM 32.8167 -84.4194 179° South 465 535 37,000 350 Climbing Atlanta Center
Thu 02:30:47 PM 32.6811 -84.4189 180° South 454 522 37,000  Level Atlanta Center
Thu 02:31:47 PM 32.5539 -84.4158 179° South 454 522 37,000  Level Atlanta Center
Thu 02:32:47 PM 32.4264 -84.4128 179° South 454 522 37,000  Level Atlanta Center
Thu 02:33:47 PM 32.3014 -84.4100 179° South 460 529 37,000  Level Atlanta Center
Thu 02:34:47 PM 32.1739 -84.4069 179° South 460 529 37,000  Level Atlanta Center
Thu 02:36:00 PM 32.0197 -84.4044 179° South 462 532 37,000  Level Jacksonville Center
Thu 02:37:00 PM 31.8925 -84.4022 179° South 457 526 37,000  Level Jacksonville Center
Thu 02:38:00 PM 31.7672 -84.3978 178° South 457 526 37,000  Level Jacksonville Center
Thu 02:39:00 PM 31.6503 -84.3983 180° South 462 532 37,000  Level Jacksonville Center
Thu 02:40:00 PM 31.5250 -84.3964 179° South 456 525 37,000 -300 Level Jacksonville Center
Thu 02:41:00 PM 31.3978 -84.3919 178° South 456 525 36,400 -750 Descending Jacksonville Center
Thu 02:42:00 PM 31.2725 -84.3900 179° South 456 525 35,500 -700 Descending Jacksonville Center
Thu 02:43:00 PM 31.1431 -84.3878 179° South 456 525 35,000 -250 Descending Jacksonville Center
Thu 02:44:00 PM 31.0200 -84.3833 178° South 456 525 35,000  Level Jacksonville Center
Thu 02:45:00 PM 30.8947 -84.3814 179° South 451 519 35,000 -350 Level Jacksonville Center
Thu 02:46:00 PM 30.7694 -84.3794 179° South 451 519 34,300 -850 Descending Jacksonville Center
Thu 02:47:00 PM 30.6442 -84.3775 179° South 451 519 33,300 -650 Descending Jacksonville Center
Thu 02:48:00 PM 30.5192 -84.3539 171° South 456 525 33,000 -150 Descending Jacksonville Center
Thu 02:49:00 PM 30.4072 -84.2775 150° Southeast 448 516 33,000  Level Jacksonville Center
Thu 02:50:00 PM 30.2994 -84.2061 150° Southeast 454 522 33,000  Level Jacksonville Center
Thu 02:51:00 PM 30.1792 -84.1278 151° Southeast 454 522 33,000 -50 Level Jacksonville Center
Thu 02:52:00 PM 30.0669 -84.0592 152° Southeast 454 522 32,900 -50 Descending Jacksonville Center
Thu 02:53:00 PM 29.9569 -83.9858 150° Southeast 454 522 32,900 50 Level Jacksonville Center
Thu 02:54:00 PM 29.8492 -83.9128 150° Southeast 454 522 33,000 50 Climbing Jacksonville Center
Thu 02:55:00 PM 29.7472 -83.8494 152° Southeast 459 528 33,000  Level Jacksonville Center
Thu 02:56:00 PM 29.6372 -83.7767 150° Southeast 454 522 33,000 -250 Level Jacksonville Center
Thu 02:57:00 PM 29.5269 -83.7089 152° Southeast 454 522 32,500 -1,050 Descending Jacksonville Center
Thu 02:58:00 PM 29.4147 -83.6342 150° Southeast 454 522 30,900 -1,900 Descending Jacksonville Center
Thu 02:59:00 PM 29.3064 -83.5664 151° Southeast 454 522 28,700 -2,150 Descending Jacksonville Center
Thu 03:00:00 PM 29.2025 -83.4992 151° Southeast 444 511 26,600 -1,950 Descending Jacksonville Center
Thu 03:01:00 PM 29.0964 -83.4319 151° Southeast 439 505 24,800 -1,750 Descending Jacksonville Center
Thu 03:02:00 PM 28.9983 -83.3697 151° Southeast 425 489 23,100 -1,800 Descending Jacksonville Center
Thu 03:03:00 PM 28.9006 -83.3075 151° Southeast 409 471 21,200 -1,850 Descending Jacksonville Center
Thu 03:04:00 PM 28.8069 -83.2456 150° Southeast 403 464 19,400 -1,750 Descending Jacksonville Center
Thu 03:05:00 PM 28.7150 -83.1908 152° Southeast 386 444 17,700 -1,600 Descending Jacksonville Center
Thu 03:06:00 PM 28.6256 -83.1361 152° Southeast 375 432 16,200 -1,606 Descending Jacksonville Center
Thu 03:07:22 PM 28.5000 -83.0500 149° Southeast 352 405 13,900 -1,412 Descending Tampa TRACON
Thu 03:08:16 PM 28.4333 -83.0167 156° South 345 397 13,000 -944 Descending Tampa TRACON
Thu 03:09:10 PM 28.3500 -82.9667 152° Southeast 316 364 12,200 -1,500 Descending Tampa TRACON
Thu 03:10:00 PM 28.3083 -82.9289 141° Southeast 309 356 10,400 -2,216 Descending Miami Center
Thu 03:11:01 PM 28.2378 -82.8806 149° Southeast 302 348 8,100 -2,308 Descending Miami Center
Thu 03:12:10 PM 28.1500 -82.8167 147° Southeast 274 315 5,400 -2,222 Descending Tampa TRACON
Thu 03:13:16 PM 28.1000 -82.7500 130° Southeast 255 293 3,100 -1,619 Descending Tampa TRACON
Thu 03:14:16 PM 28.0500 -82.6833 130° Southeast 256 295 2,000 -744 Descending Tampa TRACON
Thu 03:15:17 PM 28.0000 -82.6667 164° South 198 228 1,600 -595 Descending Tampa TRACON
Thu 03:16:17 PM 27.9500 -82.7000 210° Southwest 163 188 800 -800 Descending Tampa TRACON

Login

Don't have an account? Register now (free) for customized features, flight alerts, and more!